When you browse on this site, cookies collect data to enhance your experience and personalize the content and advertising you see.
Visit our Privacy Policy to learn more. By continuing to use the site, you agree to this use of cookies and data.
  • In United Kingdom
  • List of Countries
  • For 7 days
  • Water Temperature
  • Weather Map
  • Weather Widgets
  • user-avatar
    Login

    Hourly Weather Perth

    Today, 28 February, Friday

    Time Temperature Precipitation Wind Pressure Humidity
    00:00 +28°C° 0.1 mm 9 mps 755 mmHg 57%
    01:00 +28°C° 0.1 mm 9 mps 755 mmHg 59%
    02:00 +28°C° 0 mm 10 mps 754 mmHg 56%
    03:00 +28°C° 0.1 mm 9 mps 754 mmHg 54%
    04:00 +28°C° 0.1 mm 9 mps 754 mmHg 51%
    05:00 +28°C° 0.1 mm 9 mps 754 mmHg 49%
    06:00 +28°C° 0.1 mm 9 mps 754 mmHg 50%
    07:00 +28°C° 0.1 mm 9 mps 754 mmHg 51%
    08:00 +28°C° 0.1 mm 9 mps 754 mmHg 52%
    09:00 +29°C° 0.2 mm 8 mps 754 mmHg 49%
    10:00 +32°C° 0.2 mm 8 mps 754 mmHg 46%
    11:00 +33°C° 0.2 mm 7 mps 754 mmHg 44%
    12:00 +34°C° 0.1 mm 7 mps 753 mmHg 41%
    13:00 +35°C° 0.1 mm 7 mps 753 mmHg 38%
    14:00 +36°C° 0.1 mm 7 mps 752 mmHg 35%
    15:00 +35°C° 0.2 mm 5 mps 752 mmHg 42%
    16:00 +33°C° 0.2 mm 4 mps 752 mmHg 49%
    17:00 +30°C° 0.2 mm 3 mps 752 mmHg 56%
    18:00 +29°C° 0.3 mm 3 mps 753 mmHg 64%
    19:00 +28°C° 0.3 mm 2 mps 753 mmHg 72%
    20:00 +26°C° 0.3 mm 2 mps 753 mmHg 80%
    21:00 +26°C° 0 mm 2 mps 754 mmHg 82%
    22:00 +25°C° 0 mm 2 mps 754 mmHg 85%
    23:00 +25°C° 0 mm 2 mps 754 mmHg 87%

    Tomorrow, 29 February, Saturday

    Time Temperature Precipitation Wind Pressure Humidity
    00:00 +24°C° 0 mm 2 mps 754 mmHg 87%
    01:00 +24°C° 0 mm 2 mps 754 mmHg 87%
    02:00 +24°C° 0 mm 2 mps 753 mmHg 87%
    03:00 +23°C° 0 mm 2 mps 754 mmHg 87%
    04:00 +23°C° 0 mm 2 mps 754 mmHg 87%
    05:00 +23°C° 0 mm 1 mps 754 mmHg 87%
    06:00 +24°C° 0 mm 2 mps 754 mmHg 82%
    07:00 +24°C° 0 mm 2 mps 754 mmHg 78%
    08:00 +25°C° 0 mm 2 mps 754 mmHg 73%
    09:00 +26°C° 0 mm 3 mps 754 mmHg 67%
    10:00 +27°C° 0 mm 3 mps 754 mmHg 61%
    11:00 +28°C° 0 mm 4 mps 754 mmHg 56%
    12:00 +28°C° 0 mm 4 mps 754 mmHg 56%
    13:00 +28°C° 0 mm 4 mps 753 mmHg 56%
    14:00 +28°C° 0 mm 5 mps 753 mmHg 57%
    15:00 +28°C° 0 mm 5 mps 753 mmHg 59%
    16:00 +27°C° 0 mm 5 mps 753 mmHg 61%
    17:00 +26°C° 0 mm 4 mps 753 mmHg 64%
    18:00 +25°C° 0 mm 4 mps 754 mmHg 68%
    19:00 +24°C° 0 mm 3 mps 754 mmHg 73%
    20:00 +22°C° 0 mm 3 mps 754 mmHg 77%
    21:00 +22°C° 0 mm 3 mps 755 mmHg 80%
    22:00 +22°C° 0 mm 3 mps 755 mmHg 83%
    23:00 +22°C° 0 mm 3 mps 755 mmHg 86%

    Day after tomorrow, 1 March, Sunday

    Time Temperature Precipitation Wind Pressure Humidity
    00:00 +21°C° 0 mm 2 mps 755 mmHg 86%
    01:00 +21°C° 0 mm 2 mps 755 mmHg 86%
    02:00 +21°C° 0 mm 2 mps 755 mmHg 85%
    03:00 +21°C° 0 mm 2 mps 755 mmHg 84%
    04:00 +21°C° 0 mm 3 mps 755 mmHg 82%
    05:00 +21°C° 0 mm 3 mps 755 mmHg 81%
    06:00 +22°C° 0 mm 4 mps 756 mmHg 77%
    07:00 +23°C° 0 mm 5 mps 756 mmHg 73%
    08:00 +24°C° 0 mm 6 mps 757 mmHg 70%
    09:00 +26°C° 0 mm 7 mps 757 mmHg 66%
    10:00 +27°C° 0 mm 7 mps 757 mmHg 62%
    11:00 +28°C° 0 mm 8 mps 757 mmHg 58%
    12:00 +31°C° 0 mm 8 mps 757 mmHg 52%
    13:00 +32°C° 0 mm 7 mps 756 mmHg 47%
    14:00 +34°C° 0 mm 7 mps 756 mmHg 41%
    15:00 +33°C° 0 mm 7 mps 756 mmHg 41%
    16:00 +33°C° 0 mm 7 mps 756 mmHg 41%
    17:00 +33°C° 0 mm 7 mps 756 mmHg 41%
    18:00 +30°C° 0 mm 7 mps 757 mmHg 47%
    19:00 +28°C° 0 mm 8 mps 757 mmHg 53%
    20:00 +26°C° 0 mm 8 mps 758 mmHg 59%
    21:00 +24°C° 0 mm 9 mps 758 mmHg 61%
    22:00 +24°C° 0 mm 9 mps 759 mmHg 63%
    23:00 +23°C° 0 mm 9 mps 759 mmHg 66%

    2 March, Monday

    Time Temperature Precipitation Wind Pressure Humidity
    00:00 +23°C° 0 mm 9 mps 759 mmHg 66%
    01:00 +23°C° 0 mm 9 mps 759 mmHg 67%
    02:00 +22°C° 0 mm 9 mps 759 mmHg 67%
    03:00 +22°C° 0 mm 9 mps 759 mmHg 68%
    04:00 +22°C° 0 mm 8 mps 759 mmHg 68%
    05:00 +22°C° 0 mm 8 mps 759 mmHg 68%
    06:00 +22°C° 0 mm 9 mps 760 mmHg 66%
    07:00 +23°C° 0 mm 9 mps 760 mmHg 65%
    08:00 +23°C° 0 mm 9 mps 760 mmHg 63%
    09:00 +26°C° 0 mm 8 mps 760 mmHg 59%
    10:00 +27°C° 0 mm 8 mps 760 mmHg 55%
    11:00 +28°C° 0 mm 8 mps 760 mmHg 50%
    12:00 +31°C° 0 mm 8 mps 760 mmHg 47%
    13:00 +32°C° 0 mm 7 mps 759 mmHg 44%
    14:00 +33°C° 0 mm 7 mps 758 mmHg 41%
    15:00 +33°C° 0 mm 6 mps 758 mmHg 41%
    16:00 +33°C° 0 mm 6 mps 758 mmHg 41%
    17:00 +33°C° 0 mm 6 mps 758 mmHg 41%
    18:00 +32°C° 0 mm 5 mps 758 mmHg 44%
    19:00 +30°C° 0 mm 5 mps 758 mmHg 47%
    20:00 +29°C° 0 mm 4 mps 759 mmHg 49%
    21:00 +28°C° 0 mm 5 mps 759 mmHg 50%
    22:00 +27°C° 0 mm 6 mps 759 mmHg 50%
    23:00 +27°C° 0 mm 6 mps 760 mmHg 51%

    3 March, Tuesday

    Time Temperature Precipitation Wind Pressure Humidity
    00:00 +26°C° 0 mm 6 mps 759 mmHg 51%
    01:00 +26°C° 0 mm 6 mps 759 mmHg 52%
    02:00 +24°C° 0 mm 6 mps 759 mmHg 52%
    03:00 +24°C° 0 mm 6 mps 759 mmHg 51%
    04:00 +24°C° 0 mm 6 mps 759 mmHg 50%
    05:00 +23°C° 0 mm 6 mps 759 mmHg 49%
    06:00 +24°C° 0 mm 6 mps 759 mmHg 48%
    07:00 +24°C° 0 mm 6 mps 759 mmHg 47%
    08:00 +24°C° 0 mm 7 mps 760 mmHg 46%
    09:00 +27°C° 0 mm 6 mps 759 mmHg 44%
    10:00 +28°C° 0 mm 6 mps 759 mmHg 43%
    11:00 +30°C° 0 mm 5 mps 759 mmHg 41%
    12:00 +32°C° 0 mm 5 mps 758 mmHg 38%
    13:00 +34°C° 0 mm 4 mps 758 mmHg 36%
    14:00 +35°C° 0 mm 4 mps 758 mmHg 33%
    15:00 +35°C° 0 mm 3 mps 757 mmHg 33%
    16:00 +35°C° 0 mm 3 mps 757 mmHg 33%
    17:00 +34°C° 0 mm 3 mps 756 mmHg 33%
    18:00 +33°C° 0 mm 3 mps 756 mmHg 36%
    19:00 +30°C° 0 mm 3 mps 757 mmHg 39%
    20:00 +29°C° 0 mm 3 mps 757 mmHg 42%
    21:00 +29°C° 0 mm 4 mps 757 mmHg 41%
    22:00 +28°C° 0 mm 4 mps 757 mmHg 40%
    23:00 +28°C° 0 mm 4 mps 757 mmHg 40%

    4 March, Wednesday

    Time Temperature Precipitation Wind Pressure Humidity
    00:00 +28°C° 0 mm 4 mps 757 mmHg 39%
    01:00 +28°C° 0 mm 4 mps 756 mmHg 39%
    02:00 +27°C° 0 mm 4 mps 756 mmHg 39%
    03:00 +27°C° 0 mm 4 mps 756 mmHg 39%
    04:00 +27°C° 0 mm 4 mps 756 mmHg 39%
    05:00 +26°C° 0 mm 4 mps 756 mmHg 39%
    06:00 +27°C° 0 mm 4 mps 757 mmHg 39%
    07:00 +27°C° 0 mm 4 mps 757 mmHg 39%
    08:00 +27°C° 0 mm 4 mps 757 mmHg 39%
    09:00 +29°C° 0 mm 3 mps 757 mmHg 36%
    10:00 +33°C° 0 mm 3 mps 756 mmHg 33%
    11:00 +35°C° 0 mm 2 mps 756 mmHg 29%
    12:00 +36°C° 0 mm 2 mps 756 mmHg 28%
    13:00 +37°C° 0 mm 2 mps 755 mmHg 26%
    14:00 +38°C° 0 mm 2 mps 754 mmHg 24%
    15:00 +37°C° 0 mm 2 mps 754 mmHg 25%
    16:00 +36°C° 0 mm 3 mps 754 mmHg 27%
    17:00 +35°C° 0 mm 3 mps 754 mmHg 28%
    18:00 +34°C° 0 mm 3 mps 754 mmHg 31%
    19:00 +31°C° 0 mm 3 mps 754 mmHg 34%
    20:00 +30°C° 0 mm 2 mps 754 mmHg 37%
    21:00 +30°C° 0 mm 2 mps 754 mmHg 37%
    22:00 +29°C° 0 mm 2 mps 754 mmHg 38%
    23:00 +29°C° 0 mm 1 mps 754 mmHg 38%
    Show more